Theta_e
290 289 289 289 290 290 290 290 290 290 290 291 291 292 293 293 293 293 292 291 292 294
289 289 289 288 290 290 290 290 289 289 289 290 290 291 291 290 291 292 292 292 292 293
291 290 289 289 289 289 289 288 288 288 289 289 290 291 291 291 291 291 292 292 292 293
291 289 288 288 289 289 289 289 289 289 289 290 291 291 291 291 291 291 291 292 292 293
290 290 289 288 289 289 288 289 289 289 290 290 291 291 291 290 291 290 290 291 291 291
287 288 286 287 288 288 288 288 289 289 289 290 290 290 290 290 290 291 291 291 291 290
288 288 287 287 288 288 288 288 288 289 289 290 290 290 290 290 290 290 291 291 291 291
288 287 287 287 287 287 288 288 289 288 289 289 289 289 289 289 290 290 290 291 291 292
286 286 287 287 287 287 287 287 288 288 287 288 288 290 290 290 290 290 289 289 290 291
285 285 286 286 286 286 286 287 287 286 287 287 288 290 291 291 290 289 289 289 289 288
284 285 285 285 285 286 286 286 286 286 286 286 287 289 290 290 290 290 289 289 289 288
285 284 285 285 285 285 285 285 285 285 285 285 286 288 289 290 288 286 287 287 288 288
280 284 285 285 284 285 284 284 284 285 285 285 285 287 289 291 286 286 285 287 287 286
279 284 285 285 285 284 283 283 281 284 285 285 285 286 290 291 287 286 285 285 286 286
Wind_Speed
6 4 5 5 6 7 7 8 9 8 9 10 10 10 10 8 9 10 9 10 10 9
6 6 8 8 9 8 8 7 9 8 10 11 11 11 11 8 11 11 10 11 12 11
9 9 9 8 10 12 11 9 10 10 10 11 11 12 11 10 11 12 9 9 12 12
11 11 8 9 10 12 11 11 13 12 12 12 12 12 11 12 12 13 12 12 12 11
9 9 9 9 11 10 10 11 11 12 12 12 13 12 13 13 12 13 13 13 13 12
8 9 8 11 11 10 11 11 11 11 12 12 13 13 13 13 13 13 13 13 13 12
10 10 9 11 11 12 12 12 12 11 12 12 13 13 12 12 12 13 12 12 12 12
10 10 11 10 11 12 11 11 11 11 11 12 11 8 10 10 12 11 10 10 10 11
9 10 11 11 11 12 12 12 10 10 11 12 8 14 17 15 9 9 8 8 9 8
8 10 11 11 11 12 12 11 10 10 10 10 9 16 18 16 7 8 7 8 7 6
9 10 11 11 11 11 10 10 9 10 10 8 8 17 18 17 7 6 7 7 7 7
8 10 10 11 11 12 10 10 9 8 9 8 9 16 19 16 4 4 5 5 6 6
5 7 9 10 10 9 8 10 9 8 6 7 9 16 21 12 0 3 2 4 6 9
5 6 7 8 8 9 8 9 6 6 6 7 9 13 19 12 2 3 2 3 4 4
Wind_Direction
291 286 277 269 292 292 297 296 292 280 277 276 275 272 268 265 270 262 259 265 259 266
293 298 294 291 293 293 284 288 286 281 278 276 273 268 265 261 260 258 255 252 262 263
312 303 283 291 292 300 294 286 282 280 275 271 266 264 262 258 257 258 257 254 253 252
317 307 289 288 293 301 299 300 297 292 284 275 272 266 263 259 261 260 259 256 258 259
296 299 297 295 295 294 296 297 287 283 280 279 274 271 266 264 261 259 258 254 250 254
302 303 305 303 300 297 293 289 283 284 282 280 276 274 271 270 267 263 260 255 248 252
318 313 307 301 303 300 294 290 289 287 284 282 280 278 278 276 273 268 262 255 246 250
316 306 306 303 298 296 294 291 289 287 286 287 281 282 289 286 281 268 262 253 248 250
308 311 307 306 304 302 298 295 291 293 291 287 282 293 298 291 288 275 250 250 254 243
303 309 306 304 303 301 297 294 294 294 289 288 301 312 304 295 283 279 254 251 250 246
315 312 312 310 309 305 297 296 298 294 290 300 315 312 312 299 267 255 270 251 247 251
316 310 317 317 315 315 305 305 301 296 299 318 317 316 316 304 255 268 245 250 250 236
285 302 316 313 313 306 309 309 304 299 309 319 322 328 325 335 214 268 259 264 267 239
286 297 303 306 312 308 323 308 288 317 329 336 345 340 341 358 323 271 278 268 272 243